Location: Davidschlag
(48.4333°N, 14.2833°E)
Time: 19:25:57
(UTC+00:00)

ATLAS 3B R/B - Pass Details

Date: 27 February 2020
Orbit: 1029 x 1166 km, 63.8° (Epoch: 12 March)

Event Time Altitude Azimuth Distance (km) Brightness Sun altitude
Rises 21:17:05 0° 316° (NW) 3,811 6.4 -42.7°
Reaches altitude 10° 21:19:47 10° 311° (NW) 2,868 5.6 -43.0°
Enters shadow 21:22:45 26° 297° (WNW) 1,940 4.4 -43.3°
